GW4186 Weather Reports


time (UTC)temp
C
wind
direction
speed
KPH
gust
KPH
rain 1hr
cm
rain 24hr
cm
rain mn
cm
humidity
%
barometer
mb
20260508004554 2 137 8.0 16.1 0.00 0.94 0.18 69 988.9
20260508003052 2 126 3.2 14.5 0.00 0.94 0.18 68 988.9
20260508001611 2 165 9.7 19.3 0.00 0.94 0.18 68 988.9
20260508000051 2 141 11.3 27.4 0.00 0.94 0.18 66 988.8
20260507234549 3 180 17.7 38.6 0.00 1.32 0.18 63 988.7
20260507233050 3 175 16.1 27.4 0.00 1.32 0.18 62 988.3
20260507231555 4 120 24.1 40.2 0.00 1.32 0.18 59 988.2
20260507230048 4 147 19.3 35.4 0.00 1.32 0.18 58 988.2
20260507224558 4 139 25.7 40.2 0.00 1.40 0.18 58 988.1
20260507223055 5 156 20.9 43.5 0.00 1.40 0.18 58 988.1
20260507221552 5 124 19.3 40.2 0.00 1.40 0.18 57 987.9
20260507220052 5 165 20.9 43.5 0.00 1.40 0.18 58 988.0
20260507214554 5 137 24.1 40.2 0.00 1.45 0.18 58 988.0
20260507213054 5 149 20.9 38.6 0.00 1.45 0.18 59 987.9
20260507211554 5 137 16.1 37.0 0.00 1.45 0.18 62 987.7
20260507210053 5 125 20.9 33.8 0.00 1.45 0.18 61 987.7
20260507204559 6 127 17.7 33.8 0.00 1.55 0.18 61 987.5
20260507203052 5 129 19.3 33.8 0.00 1.55 0.18 62 987.4
20260507201558 5 95 17.7 35.4 0.00 1.55 0.18 65 987.3
20260507200049 5 119 22.5 40.2 0.00 1.55 0.18 64 987.3
20260507194551 6 163 20.9 41.8 0.00 1.68 0.18 67 987.3
20260507193054 6 128 22.5 38.6 0.00 1.68 0.18 65 987.2
20260507191556 7 152 27.4 40.2 0.00 1.68 0.18 65 987.1
20260507190055 7 134 22.5 41.8 0.00 1.68 0.18 63 986.9
20260507184550 7 107 17.7 29.0 0.00 1.98 0.18 62 986.9
20260507183055 7 130 14.5 32.2 0.00 1.98 0.18 67 987.1
20260507181601 6 130 12.9 25.7 0.00 1.98 0.18 72 987.2
20260507180050 6 108 14.5 25.7 0.00 1.98 0.18 79 987.3
20260507174557 5 141 12.9 29.0 0.08 2.26 0.18 82 987.5
20260507173051 5 143 9.7 25.7 0.18 2.26 0.18 90 987.3
20260507171602 4 87 12.9 24.1 0.18 2.26 0.18 93 987.6
20260507170054 3 59 3.2 12.9 0.18 2.26 0.18 95 987.8
20260507164549 3 117 12.9 22.5 0.08 2.21 0.08 90 988.2
20260507163056 4 107 12.9 22.5 0.00 2.13 0.00 90 988.1
20260507161555 5 101 12.9 24.1 0.00 2.13 0.00 88 988.1
20260507160053 5 91 16.1 29.0 0.00 2.13 0.00 87 988.2
20260507154601 5 150 14.5 30.6 0.00 2.13 0.00 85 988.3
20260507153100 6 168 9.7 25.7 0.00 2.13 0.00 85 988.3
20260507151554 5 120 14.5 22.5 0.00 2.13 0.00 88 988.2
20260507150056 5 151 6.4 16.1 0.00 2.13 0.00 89 988.4
20260507144553 4 116 9.7 17.7 0.00 2.21 0.00 91 988.3
20260507143050 3 112 11.3 19.3 0.00 2.21 0.00 91 988.5
20260507141552 3 120 9.7 19.3 0.00 2.21 0.00 93 988.7
20260507140053 3 99 6.4 14.5 0.00 2.21 0.00 93 988.7
20260507134554 3 180 9.7 17.7 0.00 2.24 0.00 93 988.6
20260507133052 3 142 11.3 24.1 0.00 2.24 0.00 94 988.8
20260507131600 3 69 11.3 20.9 0.00 2.24 0.00 95 988.8
20260507130105 3 80 12.9 20.9 0.00 2.24 0.00 96 988.8
20260507124555 3 70 9.7 16.1 0.00 2.24 0.00 97 988.8
20260507123054 2 129 4.8 12.9 0.00 2.24 0.00 98 988.5
20260507121605 2 112 6.4 9.7 0.00 2.24 0.00 98 988.6
20260507120100 2 149 4.8 19.3 0.00 2.24 0.00 98 988.9
20260507114609 2 138 8.0 19.3 0.00 2.24 0.00 98 988.9
20260507113052 1 96 3.2 16.1 0.00 2.24 0.00 98 989.2
20260507111551 1 131 3.2 14.5 0.00 2.24 0.00 98 989.1
20260507110052 1 97 6.4 14.5 0.00 2.24 0.00 98 989.0
20260507104549 1 143 4.8 16.1 0.00 2.24 0.00 98 989.1
20260507103051 1 108 4.8 12.9 0.00 2.24 0.00 98 988.7
20260507101552 1 100 4.8 12.9 0.00 2.24 0.00 98 988.5
20260507100051 1 140 6.4 16.1 0.00 2.24 0.00 98 988.4
20260507094554 1 103 4.8 12.9 0.00 2.24 0.00 98 988.7
20260507093059 1 133 4.8 14.5 0.00 2.24 0.00 98 988.4
20260507091556 1 126 3.2 8.0 0.00 2.24 0.00 98 988.4
20260507090057 1 0 4.8 12.9 0.00 2.24 0.00 98 988.3
20260507084554 1 136 4.8 17.7 0.00 2.24 0.00 98 988.3
20260507083047 1 0 3.2 11.3 0.00 2.24 0.00 98 988.5
20260507081554 1 87 4.8 12.9 0.00 2.24 0.00 98 988.5
20260507080052 1 128 1.6 11.3 0.00 2.24 0.00 98 988.2
20260507074602 1 145 6.4 14.5 0.00 2.34 0.00 98 988.3
20260507073051 1 202 6.4 12.9 0.00 2.34 0.00 98 988.0
20260507071550 1 0 1.6 8.0 0.00 2.34 0.00 98 988.5
20260507070050 2 180 6.4 14.5 0.00 2.34 0.00 98 987.9
20260507064554 2 141 9.7 22.5 0.00 2.36 0.00 98 988.1
20260507063048 2 175 11.3 19.3 0.00 2.36 0.00 99 987.7
20260507061551 2 167 11.3 22.5 0.00 2.36 0.00 98 987.8
20260507060052 2 158 12.9 20.9 0.00 2.36 0.00 99 987.8
20260507054631 2 147 12.9 19.3 0.00 2.44 0.00 98 987.8
20260507053055 2 195 9.7 16.1 0.00 2.44 0.00 98 988.0
20260507051552 3 157 8.0 11.3 0.00 2.44 0.00 98 988.1
20260507050057 3 170 6.4 12.9 0.00 2.44 0.00 98 988.0
20260507044600 3 150 8.0 22.5 0.00 2.44 0.00 98 988.0
20260507043050 3 163 11.3 17.7 0.03 2.44 0.00 98 988.3
20260507041600 3 144 3.2 14.5 0.05 2.44 0.00 98 988.4
20260507040058 3 160 12.9 20.9 0.05 2.44 0.00 98 989.0
20260507034558 3 126 9.7 19.3 0.10 2.44 2.44 98 988.9
20260507033053 4 145 11.3 24.1 0.13 2.41 2.41 98 989.0
20260507031604 4 144 11.3 19.3 0.18 2.39 2.39 98 988.8
20260507030055 4 127 12.9 20.9 0.38 2.39 2.39 98 988.7
20260507024553 4 156 9.7 22.5 0.53 2.34 2.34 98 988.8
20260507023103 5 133 4.8 12.9 0.53 2.29 2.29 97 988.4
20260507021554 5 133 3.2 11.3 0.46 2.21 2.21 97 988.4
20260507020056 5 150 6.4 14.5 0.25 2.01 2.01 97 988.5
20260507014602 6 145 0.0 6.4 0.08 1.80 1.80 97 988.1
20260507013053 6 145 0.0 6.4 0.03 1.75 1.75 97 988.2
20260507011552 6 143 4.8 6.4 0.05 1.75 1.75 97 988.2
20260507010049 7 172 0.0 8.0 0.08 1.75 1.75 97 988.1